This demonstration page uses our WeatherBlox Daily Observations layout. Learn more.

Left ArrowRight Arrow

39.29038, -76.61219

Hourly Observations for November 15, 2020

Temp ( °F °C ) Dew Point ( °F °C ) Humidity (%) Winds ( mph kmh ) Pressure ( in mb ) Visibility ( mi km ) Precip ( " mm )
12:54 am 00:54 Partly Cloudy 43 6.1 36 2.2 76 76 Calm 30.21 1023 10 16 0.00 0.00
1:54 am 01:54 Partly Cloudy 40 4.4 34 1.1 79 79 Calm 30.21 1023 10 16 0.00 0.00
2:54 am 02:54 Mostly Cloudy 45 7.2 36 2.2 71 71 E 5 7 30.19 1023 10 16 0.00 0.00
3:54 am 03:54 Mostly Cloudy 46 7.8 35 1.7 66 66 E 3 6 30.18 1022 10 16 0.00 0.00
4:54 am 04:54 Partly Cloudy 45 7.2 35 1.7 68 68 ENE 3 6 30.16 1022 10 16 0.00 0.00
5:54 am 05:54 Mostly Cloudy 42 5.6 37 2.8 82 82 Calm 30.15 1021 10 16 0.00 0.00
6:54 am 06:54 Mostly Cloudy 47 8.3 40 4.4 77 77 E 5 7 30.12 1020 10 16 0.00 0.00
7:54 am 07:54 Mostly Cloudy 48 8.9 42 5.6 80 80 Calm 30.11 1020 10 16 0.00 0.00
8:54 am 08:54 Mostly Cloudy 54 12.2 47 8.3 77 77 SSE 8 13 30.07 1018 10 16 0.00 0.00
9:54 am 09:54 Mostly Cloudy 58 14.4 49 9.4 72 72 SSE 10 17 30.04 1017 10 16 0.00 0.00
10:54 am 10:54 Mostly Cloudy 62 16.7 51 10.6 67 67 SE 14 22 29.98 1015 10 16 0.00 0.00
11:54 am 11:54 Mostly Cloudy 63 17.2 51 10.6 65 65 SSE 10 17 29.93 1014 10 16 0.00 0.00
12:54 pm 12:54 Mostly Cloudy 63 17.2 51 10.6 65 65 SE 12 19 29.86 1011 10 16 0.00 0.00
1:54 pm 13:54 Cloudy 64 17.8 52 11.1 65 65 SSE 12 19 29.82 1010 10 16 0.00 0.00
2:54 pm 14:54 Mostly Cloudy 65 18.3 54 12.2 68 68 SSE 9 15 29.76 1008 10 16 0.00 0.00
3:54 pm 15:54 Mostly Cloudy 65 18.3 56 13.3 73 73 SSE 13 20 29.72 1007 10 16 0.00 0.00
4:54 pm 16:54 Mostly Cloudy 65 18.3 57 13.9 76 76 VRB 7 11 29.72 1006 10 16 0.00 0.00
5:05 pm 17:05 Mostly Cloudy 65 18.3 57 13.9 76 76 SW 7 11 29.71 1006 10 16 0.00 0.00
5:54 pm 17:54 Cloudy 67 19.4 58 14.4 73 73 SSW 7 11 29.69 1006 10 16 0.00 0.00
6:47 pm 18:47 Cloudy with Rain 67 19.4 60 15.6 79 79 WSW 15 24 29.69 1005 3 4 0.21 5.33
6:54 pm 18:54 Cloudy with Heavy Rain 67 19.4 61 16.1 81 81 SSW 12 19 29.69 1006 4 6 0.24 6.10
7:25 pm 19:25 Cloudy with Light Rain 58 14.4 48 8.9 70 70 WNW 25 41 29.78 1008 5 8 0.07 1.78
7:32 pm 19:32 Cloudy with Heavy Rain 56 13.3 47 8.3 72 72 WNW 23 37 29.77 1008 4 6 0.12 3.05
7:54 pm 19:54 Mostly Cloudy with Light Rain 55 12.8 44 6.7 67 67 WNW 24 39 29.77 1008 10 16 0.12 3.05
8:54 pm 20:54 Mostly Cloudy 57 13.9 41 5 55 55 W 18 30 29.80 1009 10 16 0.00 0.00
9:54 pm 21:54 Mostly Clear 57 13.9 38 3.3 49 49 W 21 33 29.82 1010 10 16 0.00 0.00
10:54 pm 22:54 Clear 57 13.9 35 1.7 44 44 W 28 44 29.83 1010 10 16 0.00 0.00
11:54 pm 23:54 Mostly Clear 55 12.8 34 1.1 45 45 W 21 33 29.88 1012 10 16 0.00 0.00

Powered by AerisWeather